| time (UTC) | temp F | wind direction | speed knots | gust knots | rain 1hr in | rain 24hr in | rain mn in | humidity % | barometer mb |
| 20260504221018 | 74 | 315 | 7.0 | 18.2 | 0.00 | 0.00 | 0.00 | 35 | 1010.1 |
| 20260504220018 | 75 | 315 | 7.0 | 23.5 | 0.00 | 0.00 | 0.00 | 33 | 1010.4 |
| 20260504215018 | 76 | 23 | 3.5 | 8.7 | 0.00 | 0.00 | 0.00 | 26 | 1010.8 |
| 20260504214018 | 76 | 45 | 2.6 | 8.7 | 0.00 | 0.00 | 0.00 | 25 | 1010.7 |
| 20260504213018 | 76 | 45 | 3.5 | 8.7 | 0.00 | 0.00 | 0.00 | 27 | 1010.8 |
| 20260504212018 | 74 | 45 | 2.6 | 7.8 | 0.00 | 0.00 | 0.00 | 27 | 1010.9 |
| 20260504211018 | 74 | 23 | 1.7 | 4.3 | 0.00 | 0.00 | 0.00 | 27 | 1011.0 |
| 20260504210039 | 74 | 0 | 3.5 | 12.2 | 0.00 | 0.00 | 0.00 | 26 | 1011.0 |
| 20260504205038 | 74 | 0 | 2.6 | 7.8 | 0.00 | 0.00 | 0.00 | 28 | 1011.5 |
| 20260504204038 | 76 | 315 | 3.5 | 8.7 | 0.00 | 0.00 | 0.00 | 30 | 1012.0 |
| 20260504203038 | 76 | 45 | 3.5 | 7.8 | 0.00 | 0.00 | 0.00 | 26 | 1011.8 |
| 20260504202038 | 74 | 68 | 2.6 | 8.7 | 0.00 | 0.00 | 0.00 | 26 | 1012.1 |
| 20260504201018 | 73 | 68 | 1.7 | 6.1 | 0.00 | 0.00 | 0.00 | 28 | 1012.0 |
| 20260504200038 | 72 | 270 | 5.2 | 14.8 | 0.00 | 0.00 | 0.00 | 31 | 1012.1 |
| 20260504195038 | 73 | 270 | 4.3 | 8.7 | 0.00 | 0.00 | 0.00 | 31 | 1012.6 |
| 20260504194018 | 72 | 293 | 5.2 | 11.3 | 0.00 | 0.00 | 0.00 | 31 | 1012.7 |
| 20260504193018 | 71 | 293 | 4.3 | 8.7 | 0.00 | 0.00 | 0.00 | 32 | 1012.8 |
| 20260504192038 | 72 | 293 | 2.6 | 6.1 | 0.00 | 0.00 | 0.00 | 31 | 1012.7 |
| 20260504191018 | 71 | 293 | 4.3 | 7.8 | 0.00 | 0.00 | 0.00 | 34 | 1013.0 |
| 20260504190018 | 71 | 293 | 5.2 | 9.6 | 0.00 | 0.00 | 0.00 | 34 | 1013.0 |
| 20260504185018 | 72 | 0 | 2.6 | 5.2 | 0.00 | 0.00 | 0.00 | 34 | 1013.1 |
| 20260504184018 | 72 | 293 | 1.7 | 6.1 | 0.00 | 0.00 | 0.00 | 36 | 1013.2 |
| 20260504183018 | 71 | 293 | 2.6 | 6.1 | 0.00 | 0.00 | 0.00 | 35 | 1013.3 |
| 20260504182018 | 71 | 203 | 1.7 | 7.0 | 0.00 | 0.00 | 0.00 | 34 | 1013.3 |
| 20260504181018 | 70 | 293 | 3.5 | 7.8 | 0.00 | 0.00 | 0.00 | 34 | 1013.1 |
| 20260504180018 | 70 | 315 | 2.6 | 6.1 | 0.00 | 0.00 | 0.00 | 36 | 1013.3 |
| 20260504175018 | 69 | 315 | 0.9 | 3.5 | 0.00 | 0.00 | 0.00 | 39 | 1013.3 |
| 20260504174038 | 69 | 315 | 2.6 | 7.8 | 0.00 | 0.00 | 0.00 | 40 | 1013.4 |
| 20260504173018 | 68 | 270 | 2.6 | 7.8 | 0.00 | 0.00 | 0.00 | 39 | 1013.4 |
| 20260504172018 | 67 | 293 | 3.5 | 7.0 | 0.00 | 0.00 | 0.00 | 40 | 1013.5 |
| 20260504171018 | 67 | 270 | 3.5 | 7.0 | 0.00 | 0.00 | 0.00 | 40 | 1013.5 |
| 20260504151018 | 51 | 180 | 0.9 | 2.6 | 0.00 | 0.00 | 0.00 | 82 | 1012.4 |